Location: Berg
(48.5667°N, 13.9833°E)
Time: 22:59:19
(UTC+00:00)

Cosmos-2242 - Pass Details

Date: 09 April 2020
Orbit: 590 x 618 km, 82.5° (Epoch: 24 May)

Event Time Altitude Azimuth Distance (km) Brightness Sun altitude
Exits shadow 20:08:42 46° 74° (ENE) 819 3.4 -21.5°
Drops below altitude 10° 20:12:30 10° 20° (NNE) 1,979 5.9 -21.9°
Sets 20:14:47 0° 15° (NNE) 2,892 6.9 -22.2°
